Flint, MI

2:46 PM EST on February 23, 2017 (GMT -0500)
Bishop International

Weather History for KFNT - January, 2012

Change the Weather History Date:

Monday, January 30, 2012

  Actual Average Record
Temperature  
Mean Temperature 23 °F 22 °F  
Max Temperature 41 °F 30 °F 58 °F (2013)
Min Temperature 4 °F 15 °F -16 °F (1951)
Degree Days  
Heating Degree Days 42 43  
Month to date heating degree days 1087 1279  
Since 1 July heating degree days 3272 3924  
Cooling Degree Days 0 0  
Month to date cooling degree days 0 0  
Year to date cooling degree days 0 0  
Moisture  
Dew Point 18 °F    
Average Humidity 78    
Maximum Humidity 92    
Minimum Humidity 63    
Precipitation  
Precipitation 0.01 in 0.04 in 0.98 in (1947)
Month to date precipitation 1.94 1.58  
Year to date precipitation 1.94 1.58  
Snow  
Snow 0.30 in 0.40 in 5.50 in (1939)
Month to date snowfall 12.6 12.7  
Since 1 July snowfall 20.7 27.4  
Snow Depth 3.00 in    
Sea Level Pressure  
Sea Level Pressure 30.08 in    
Wind  
Wind Speed 8 mph (South)    
Max Wind Speed 18 mph    
Max Gust Speed 22 mph    
Visibility 9 miles    
Events Snow    
T = Trace of Precipitation, MM = Missing Value Source: NWS Daily Summary

Daily Weather History Graph

Daily Weather History Graph

Search for Another Location

Airport or City:

Trip Planner

Search our weather history database for the weather conditions in past years. The results will help you decide how hot, cold, wet, or windy it might be!

Date:

Astronomy

Jan. 30, 2012 Rise Set
Actual Time 7:52 AM EST 5:44 PM EST
Civil Twilight 7:22 AM EST 6:14 PM EST
Nautical Twilight 6:48 AM EST 6:48 PM EST
Astronomical Twilight 6:14 AM EST 7:22 PM EST
Moon 11:01 AM EST (1/30) 12:40 AM EST (1/30)
Length of Visible Light 10h 52m
Length of Day
9h 51m
Waxing Crescent, 46% of the Moon is Illuminated
Jan 30
Waxing Crescent
Jan 30
First Quarter
Feb 7
Full
Feb 14
Last Quarter
Feb 21
New

Hourly Weather History & Observations

Time (EST) Temp. Windchill Dew Point Humidity Pressure Visibility Wind Dir Wind Speed Gust Speed Precip Events Conditions
12:53 AM 21.0 °F 13.4 °F 12.9 °F 71% 30.22 in 10.0 mi WSW 5.8 mph - N/A   Scattered Clouds
1:53 AM 19.9 °F 12.1 °F 12.9 °F 74% 30.22 in 10.0 mi SW 5.8 mph - N/A   Mostly Cloudy
2:53 AM 18.0 °F 9.8 °F 12.9 °F 81% 30.24 in 10.0 mi SW 5.8 mph - N/A   Clear
3:53 AM 10.9 °F 4.7 °F 8.1 °F 88% 30.24 in 10.0 mi SW 3.5 mph - N/A   Clear
4:53 AM 10.9 °F - 7.0 °F 84% 30.25 in 10.0 mi Calm Calm - N/A   Clear
5:53 AM 8.1 °F 1.4 °F 3.9 °F 83% 30.24 in 10.0 mi South 3.5 mph - N/A   Clear
6:53 AM 10.9 °F 2.9 °F 7.0 °F 84% 30.23 in 10.0 mi South 4.6 mph - N/A   Mostly Cloudy
7:53 AM 17.1 °F 10.0 °F 12.9 °F 84% 30.22 in 10.0 mi South 4.6 mph - N/A   Overcast
8:53 AM 19.9 °F 11.1 °F 14.0 °F 78% 30.21 in 10.0 mi SSE 6.9 mph - N/A   Overcast
9:53 AM 21.9 °F 14.5 °F 15.1 °F 75% 30.22 in 10.0 mi South 5.8 mph - 0.00 in   Overcast
10:53 AM 25.0 °F 14.8 °F 16.0 °F 69% 30.19 in 10.0 mi SSE 10.4 mph - N/A   Overcast
11:53 AM 26.6 °F 15.2 °F 17.6 °F 69% 30.14 in 10.0 mi SSE 13.8 mph - N/A   Overcast
12:43 PM 26.6 °F 14.7 °F 17.6 °F 69% 30.08 in 2.5 mi SSE 15.0 mph - 0.00 in Snow Light Snow
12:53 PM 26.1 °F 14.0 °F 19.0 °F 75% 30.10 in 0.5 mi SSE 15.0 mph 21.9 mph 0.00 in Snow Snow
1:18 PM 26.6 °F 14.7 °F 19.4 °F 74% 30.01 in 2.0 mi ESE 15.0 mph - 0.00 in Snow Light Snow
1:21 PM 26.6 °F 13.8 °F 21.2 °F 80% 30.00 in 5.0 mi ESE 17.3 mph - 0.00 in Snow Light Snow
1:53 PM 27.0 °F 16.7 °F 21.0 °F 78% 30.00 in 5.0 mi SE 11.5 mph - 0.00 in   Haze
2:53 PM 30.9 °F 20.7 °F 21.9 °F 69% 29.99 in 10.0 mi SSE 13.8 mph 19.6 mph 0.01 in   Overcast
3:53 PM 32.0 °F 22.5 °F 21.9 °F 66% 29.99 in 10.0 mi South 12.7 mph 17.3 mph N/A   Overcast
4:53 PM 32.0 °F 22.5 °F 23.0 °F 69% 29.95 in 10.0 mi SSE 12.7 mph - N/A   Overcast
5:53 PM 33.1 °F 25.5 °F 24.1 °F 70% 29.93 in 10.0 mi South 9.2 mph - N/A   Overcast
6:53 PM 34.0 °F 25.5 °F 24.1 °F 67% 29.92 in 10.0 mi South 11.5 mph - N/A   Clear
7:53 PM 32.0 °F 26.4 °F 24.1 °F 73% 29.93 in 10.0 mi SSW 5.8 mph - N/A   Clear
8:53 PM 34.0 °F 28.8 °F 26.1 °F 73% 29.91 in 10.0 mi South 5.8 mph - N/A   Clear
9:53 PM 37.9 °F 30.9 °F 28.9 °F 70% 29.91 in 10.0 mi SW 10.4 mph - N/A   Clear
10:53 PM 39.9 °F 33.9 °F 30.0 °F 68% 29.90 in 10.0 mi SW 9.2 mph - N/A   Clear
11:53 PM 41.0 °F 34.7 °F 30.9 °F 67% 29.90 in 10.0 mi SW 10.4 mph - N/A   Clear